Litchfield, MN

1:50 PM CDT on September 24, 2017 (GMT -0500)
Litchfield Municipal

Weather History for KLJF - November, 2011

Change the Weather History Date:

Saturday, November 12, 2011

  Actual Average Record
Temperature  
Mean Temperature 45 °F -  
Max Temperature 62 °F 38 °F 66 °F (2001)
Min Temperature 28 °F 22 °F -3 °F (1966)
Degree Days  
Heating Degree Days 20    
Moisture  
Dew Point 25 °F    
Average Humidity 48    
Maximum Humidity 74    
Minimum Humidity 20    
Precipitation  
Precipitation 0.00 in - - ()
Sea Level Pressure  
Sea Level Pressure 29.42 in    
Wind  
Wind Speed 3 mph (SSE)    
Max Wind Speed 14 mph    
Max Gust Speed 21 mph    
Visibility 10 miles    
Events      
Averages and records for this station are not official NWS values.
T = Trace of Precipitation, MM = Missing Value Source: NWS Daily Summary

Daily Weather History Graph

Daily Weather History Graph

Search for Another Location

Airport or City:

Trip Planner

Search our weather history database for the weather conditions in past years. The results will help you decide how hot, cold, wet, or windy it might be!

Date:

Astronomy

Nov. 12, 2011 Rise Set
Actual Time 7:11 AM CST 4:52 PM CST
Civil Twilight 6:39 AM CST 5:23 PM CST
Nautical Twilight 6:04 AM CST 5:59 PM CST
Astronomical Twilight 5:29 AM CST 6:33 PM CST
Moon 6:03 PM CST (11/12) 8:59 AM CST (11/12)
Length of Visible Light 10h 43m
Length of Day
9h 40m
Full, 97% of the Moon is Illuminated
Nov 12
Full
Nov 18
Last Quarter
Nov 25
New
Dec 2
First Quarter
Dec 10
Full

Hourly Weather History & Observations

Time (CST) Temp. Windchill Dew Point Humidity Pressure Visibility Wind Dir Wind Speed Gust Speed Precip Events Conditions
12:12 AM 35.6 °F - 23.0 °F 60% 29.56 in 10.0 mi Calm Calm - N/A   Clear
12:33 AM 37.4 °F - 23.0 °F 56% 29.56 in 10.0 mi Calm Calm - N/A   Clear
12:53 AM 35.6 °F - 21.2 °F 56% 29.55 in 10.0 mi Calm Calm - N/A   Clear
1:13 AM 35.6 °F - 21.2 °F 56% 29.55 in 10.0 mi Calm Calm - N/A   Clear
1:33 AM 33.8 °F - 21.2 °F 60% 29.56 in 10.0 mi Calm Calm - N/A   Clear
1:53 AM 33.8 °F - 21.2 °F 60% 29.56 in 10.0 mi Calm Calm - N/A   Clear
2:13 AM 35.6 °F - 21.2 °F 56% 29.56 in 10.0 mi Calm Calm - N/A   Clear
2:33 AM 35.6 °F - 21.2 °F 56% 29.55 in 10.0 mi Calm Calm - N/A   Clear
2:53 AM 33.8 °F - 21.2 °F 60% 29.54 in 10.0 mi Calm Calm - N/A   Clear
3:13 AM 35.6 °F - 21.2 °F 56% 29.53 in 10.0 mi Calm Calm - N/A   Clear
3:33 AM 33.8 °F - 23.0 °F 65% 29.53 in 10.0 mi Calm Calm - N/A   Clear
3:53 AM 33.8 °F - 23.0 °F 65% 29.53 in 10.0 mi Calm Calm - N/A   Clear
4:13 AM 33.8 °F - 23.0 °F 65% 29.52 in 10.0 mi Calm Calm - N/A   Clear
4:33 AM 33.8 °F - 23.0 °F 65% 29.52 in 10.0 mi Calm Calm - N/A   Clear
4:53 AM 28.4 °F - 21.2 °F 74% 29.51 in 10.0 mi Calm Calm - N/A   Clear
5:13 AM 32.0 °F - 23.0 °F 69% 29.52 in 10.0 mi Calm Calm - N/A   Clear
5:33 AM 32.0 °F - 23.0 °F 69% 29.51 in 10.0 mi Calm Calm - N/A   Clear
6:13 AM 33.8 °F 29.6 °F 23.0 °F 65% 29.50 in 10.0 mi SSE 4.6 mph - N/A   Clear
6:53 AM 33.8 °F 28.6 °F 21.2 °F 60% 29.49 in 10.0 mi SSE 5.8 mph - N/A   Clear
7:13 AM 33.8 °F 29.6 °F 21.2 °F 60% 29.48 in 10.0 mi SSE 4.6 mph - N/A   Clear
7:33 AM 33.8 °F 28.6 °F 21.2 °F 60% 29.47 in 10.0 mi SSE 5.8 mph - N/A   Clear
7:53 AM 33.8 °F 28.6 °F 21.2 °F 60% 29.47 in 10.0 mi SSE 5.8 mph - N/A   Clear
8:13 AM 35.6 °F 30.7 °F 21.2 °F 56% 29.47 in 10.0 mi SSE 5.8 mph - N/A   Clear
8:33 AM 37.4 °F 32.8 °F 21.2 °F 52% 29.47 in 10.0 mi SSE 5.8 mph - N/A   Clear
8:53 AM 39.2 °F 35.9 °F 21.2 °F 49% 29.48 in 10.0 mi SSE 4.6 mph - N/A   Clear
9:13 AM 41.0 °F 38.0 °F 21.2 °F 45% 29.47 in 10.0 mi South 4.6 mph - N/A   Clear
9:34 AM 44.6 °F 43.1 °F 21.2 °F 39% 29.46 in 10.0 mi SSE 3.5 mph - N/A   Clear
9:53 AM 46.4 °F 44.3 °F 21.2 °F 37% 29.46 in 10.0 mi SSE 4.6 mph - N/A   Clear
10:13 AM 48.2 °F - 21.2 °F 34% 29.46 in 10.0 mi SSE 4.6 mph - N/A   Clear
10:32 AM 50.0 °F - 21.2 °F 32% 29.46 in 10.0 mi SSE 5.8 mph - N/A   Clear
10:53 AM 51.8 °F - 23.0 °F 33% 29.45 in 10.0 mi SSE 5.8 mph - N/A   Clear
11:13 AM 53.6 °F - 23.0 °F 30% 29.44 in 10.0 mi South 4.6 mph - N/A   Clear
11:33 AM 57.2 °F - 24.8 °F 29% 29.43 in 10.0 mi South 6.9 mph - N/A   Clear
11:53 AM 60.8 °F - 24.8 °F 25% 29.42 in 10.0 mi South 6.9 mph - N/A   Clear
12:13 PM 60.8 °F - 23.0 °F 23% 29.41 in 10.0 mi SSE 5.8 mph - N/A   Clear
12:53 PM 60.8 °F - 23.0 °F 23% 29.39 in 10.0 mi South 4.6 mph - N/A   Clear
1:13 PM 60.8 °F - 24.8 °F 25% 29.38 in 10.0 mi South 6.9 mph - N/A   Clear
1:32 PM 62.6 °F - 24.8 °F 24% 29.37 in 10.0 mi South 5.8 mph - N/A   Clear
1:53 PM 62.6 °F - 21.2 °F 20% 29.34 in 10.0 mi South 6.9 mph - N/A   Clear
2:13 PM 60.8 °F - 24.8 °F 25% 29.33 in 10.0 mi SSE 8.1 mph 19.6 mph N/A   Clear
2:32 PM 59.0 °F - 24.8 °F 27% 29.32 in 10.0 mi SSE 10.4 mph 17.3 mph N/A   Clear
2:53 PM 59.0 °F - 26.6 °F 29% 29.31 in 10.0 mi SSE 11.5 mph 18.4 mph N/A   Clear
3:13 PM 57.2 °F - 26.6 °F 31% 29.30 in 10.0 mi SSE 13.8 mph 18.4 mph N/A   Clear
3:33 PM 57.2 °F - 26.6 °F 31% 29.30 in 10.0 mi SSE 9.2 mph 19.6 mph N/A   Clear
3:53 PM 55.4 °F - 26.6 °F 33% 29.29 in 10.0 mi SSE 12.7 mph 19.6 mph N/A   Clear
4:13 PM 55.4 °F - 28.4 °F 36% 29.28 in 10.0 mi SSE 9.2 mph 16.1 mph N/A   Clear
4:33 PM 53.6 °F - 28.4 °F 38% 29.28 in 10.0 mi SSE 8.1 mph - N/A   Clear
4:53 PM 53.6 °F - 30.2 °F 41% 29.28 in 10.0 mi SSE 6.9 mph 18.4 mph N/A   Clear
5:13 PM 51.8 °F - 32.0 °F 47% 29.27 in 10.0 mi SSE 11.5 mph 20.7 mph N/A   Clear
5:33 PM 51.8 °F - 32.0 °F 47% - 10.0 mi SSE 9.2 mph 17.3 mph N/A   Clear
5:53 PM 51.8 °F - 33.8 °F 50% 29.26 in 10.0 mi SSE 9.2 mph 18.4 mph N/A   Clear
6:13 PM 51.8 °F - 33.8 °F 50% 29.27 in 10.0 mi South 5.8 mph - N/A   Clear
6:33 PM 51.8 °F - 33.8 °F 50% 29.26 in 10.0 mi SSE 8.1 mph 17.3 mph N/A   Clear
6:53 PM 51.8 °F - 35.6 °F 54% 29.26 in 10.0 mi South 5.8 mph 17.3 mph N/A   Clear
7:13 PM 51.8 °F - 35.6 °F 54% 29.25 in 10.0 mi South 9.2 mph 18.4 mph N/A   Clear
7:33 PM 50.0 °F - 35.6 °F 58% 29.24 in 10.0 mi South 6.9 mph - N/A   Clear
7:53 PM 48.2 °F - 35.6 °F 62% 29.23 in 10.0 mi South 9.2 mph - N/A   Clear
8:13 PM 48.2 °F - 35.6 °F 62% 29.23 in 10.0 mi South 5.8 mph - N/A   Clear
8:33 PM 46.4 °F 44.3 °F 35.6 °F 66% 29.23 in 10.0 mi South 4.6 mph - N/A   Clear
8:53 PM 46.4 °F 45.2 °F 35.6 °F 66% 29.23 in 10.0 mi South 3.5 mph - N/A   Clear
9:33 PM 44.6 °F 42.2 °F 33.8 °F 66% 29.20 in 10.0 mi South 4.6 mph - N/A   Clear
9:53 PM 44.6 °F 43.1 °F 33.8 °F 66% 29.20 in 10.0 mi SSW 3.5 mph - N/A   Clear
10:13 PM 44.6 °F 42.2 °F 33.8 °F 66% 29.19 in 10.0 mi South 4.6 mph - N/A   Clear
10:33 PM 42.8 °F - 33.8 °F 70% 29.18 in 10.0 mi Calm Calm - N/A   Clear
10:53 PM 42.8 °F 41.1 °F 33.8 °F 70% 29.18 in 10.0 mi South 3.5 mph - N/A   Clear
11:12 PM 42.8 °F 41.1 °F 33.8 °F 70% 29.17 in 10.0 mi South 3.5 mph - N/A   Clear
11:33 PM 42.8 °F 40.1 °F 33.8 °F 70% 29.17 in 10.0 mi South 4.6 mph - N/A   Clear
11:53 PM 41.0 °F 38.0 °F 33.8 °F 76% 29.17 in 10.0 mi SSW 4.6 mph - N/A   Clear